FENGYUN 1C DEB, 32304

Orbit data source: Space-Track

FENGYUN 1C DEB, 32304 is space debris in SSO originally from a launch on Mon, 10 May 1999 UTC launched from the Taiyaun Space Center, China (TSC). Fengyun 1C debris stems from the Chinese weather satellite Fengyun-1C, which was intentionally destroyed by a Chinese anti-satellite missile in 2007. This event dramatically increased the amount of space debris, with thousands of trackable fragments posing hazards to satellites and human spaceflight. The Fengyun 1C debris cloud has become a focal point in discussions about space sustainability and the need for international regulations to prevent the creation of new debris.

Loading next visibility...
Identifier
32304, 1999-025CWV
Orbit
SSO
Country
Flag of CNCN / PRC
Related business
Manufacturer
Unknown
Mission
Spacecraft
Bus & Motor
Unknown
Mass
Unknown
Launch date (UTC)
1999-05-10 (27 years ago)
Launch vehicle
Unknown
Launch site
Taiyaun Space Center, China (TSC)
Object type
Payload
Rocket body
Debris
Shape & HBR
Unknown shape, 0.1 m
Radar Cross Section
Small (<0.1 m²)

Expand to show TLE details & history
Last TLE update: 2 weeks ago

TLE from 2 weeks ago
0 FENGYUN 1C DEB
1 32304U 99025CWV 25337.09676027  .00007809  00000-0  19807-2 0  9995
2 32304  99.3949 290.5539 0049558 255.7789 103.7894 14.50391603561336
Epoch: 2025-12-03T02:19Z
TLE epoch observation values (Epoch: 2025-12-03T02:19:20.087Z)
Latitude
-0.00002°
Longitude
-176.45225°
Altitude
735.858 km
Speed
7.483 km/s
True Right ascension
19h 22m 12s
True Declination
0° 00' 00"
Sunlit
Object was in daylight at epoch
Visualization orbit readout
Latitude
Unknown
Longitude
Unknown
Altitude
Unknown
Speed
Unknown
Apparent Right ascension
Unknown
Apparent Declination
Unknown
Sunlit
N/A
Visualization observer readout
Local Sidereal Time
21:05:28
Azimuth
Unknown
Elevation
Unknown
Doppler factor
Unknown
Orbital elements
Apogee altitude
756.707 km
Perigee altitude
686.338 km
Semi-major axis
7,099.659 km
Eccentricity
0.00496
Inclination
99.3949°
RAAN
290.5539°
Arg. of periapsis
255.7789°
True anomaly
104.3401°
Mean anomaly
103.7894°
Eccentric anomaly
104.06483°
Mean motion
3.62816 °/min
Orbital period
99.22 mins
BSTAR
0.0019807
Loading maneuver chart data...
Computing Atmospheric mass density...

Documentation

Showing up to 5 results
|